Time,TemperatureF,DewpointF,PressureIn,WindDirection,WindDirectionDegrees,WindSpeedMPH,WindSpeedGustMPH,Humidity,HourlyPrecipIn,Conditions,Clouds,dailyrainin,SoftwareType,DateUTC
2014-11-20 00:05:00,14.6,10.4,29.90,West,275,2.0,12.0,83,0.00,,,0.00,Wunderground v.1.15,2014-11-20 06:05:00,
2014-11-20 00:10:00,14.7,10.2,29.90,West,273,2.0,2.0,82,0.00,,,0.00,Wunderground v.1.15,2014-11-20 06:10:00,
2014-11-20 00:15:00,14.5,10.0,29.91,WSW,254,3.0,12.0,82,0.00,,,0.00,Wunderground v.1.15,2014-11-20 06:15:00,
2014-11-20 00:20:00,14.3,9.8,29.90,West,280,3.0,12.0,82,0.00,,,0.00,Wunderground v.1.15,2014-11-20 06:20:00,
2014-11-20 00:25:00,14.1,9.6,29.90,SW,235,2.0,12.0,82,0.00,,,0.00,Wunderground v.1.15,2014-11-20 06:25:00,
2014-11-20 00:31:00,13.9,9.7,29.90,WSW,257,2.0,12.0,83,0.00,,,0.00,Wunderground v.1.15,2014-11-20 06:31:00,
2014-11-20 00:36:00,13.9,9.7,29.91,West,280,2.0,12.0,83,0.00,,,0.00,Wunderground v.1.15,2014-11-20 06:36:00,
2014-11-20 00:41:00,13.8,9.6,29.91,WNW,298,2.0,12.0,83,0.00,,,0.00,Wunderground v.1.15,2014-11-20 06:41:00,
2014-11-20 00:46:00,13.7,9.5,29.91,WNW,288,2.0,12.0,83,0.00,,,0.00,Wunderground v.1.15,2014-11-20 06:46:00,
2014-11-20 00:51:00,13.6,9.4,29.91,WNW,291,2.0,12.0,83,0.00,,,0.00,Wunderground v.1.15,2014-11-20 06:51:00,
2014-11-20 00:57:00,13.4,9.2,29.91,West,263,2.0,12.0,83,0.00,,,0.00,Wunderground v.1.15,2014-11-20 06:57:00,
2014-11-20 01:02:00,13.4,9.2,29.91,West,277,2.0,12.0,83,0.00,,,0.00,Wunderground v.1.15,2014-11-20 07:02:00,
2014-11-20 01:07:00,13.3,9.1,29.91,NW,309,2.0,12.0,83,0.00,,,0.00,Wunderground v.1.15,2014-11-20 07:07:00,
2014-11-20 01:12:00,13.2,9.0,29.91,WSW,257,2.0,12.0,83,0.00,,,0.00,Wunderground v.1.15,2014-11-20 07:12:00,
2014-11-20 01:17:00,13.2,9.0,29.91,WSW,243,2.0,12.0,83,0.00,,,0.00,Wunderground v.1.15,2014-11-20 07:17:00,
2014-11-20 01:22:00,13.0,8.8,29.91,WNW,288,2.0,12.0,83,0.00,,,0.00,Wunderground v.1.15,2014-11-20 07:22:00,
2014-11-20 01:28:00,12.8,8.6,29.91,WSW,248,2.0,12.0,83,0.00,,,0.00,Wunderground v.1.15,2014-11-20 07:28:00,
2014-11-20 01:33:00,12.8,8.6,29.92,West,281,2.0,12.0,83,0.00,,,0.00,Wunderground v.1.15,2014-11-20 07:33:00,
2014-11-20 01:38:00,12.7,8.5,29.92,NW,304,3.0,12.0,83,0.00,,,0.00,Wunderground v.1.15,2014-11-20 07:38:00,
2014-11-20 01:43:00,12.8,8.6,29.92,WNW,297,3.0,12.0,83,0.00,,,0.00,Wunderground v.1.15,2014-11-20 07:43:00,
2014-11-20 01:48:00,12.5,8.3,29.92,West,266,2.0,12.0,83,0.00,,,0.00,Wunderground v.1.15,2014-11-20 07:48:00,
2014-11-20 01:54:00,12.3,8.1,29.93,WNW,299,2.0,12.0,83,0.00,,,0.00,Wunderground v.1.15,2014-11-20 07:54:00,
2014-11-20 01:59:00,12.1,7.9,29.93,West,262,2.0,12.0,83,0.00,,,0.00,Wunderground v.1.15,2014-11-20 07:59:00,
2014-11-20 02:04:00,12.0,7.8,29.93,WNW,288,2.0,12.0,83,0.00,,,0.00,Wunderground v.1.15,2014-11-20 08:04:00,
2014-11-20 02:09:00,11.8,7.6,29.93,West,260,2.0,12.0,83,0.00,,,0.00,Wunderground v.1.15,2014-11-20 08:09:00,
2014-11-20 02:14:00,11.8,7.9,29.94,WNW,297,2.0,12.0,84,0.00,,,0.00,Wunderground v.1.15,2014-11-20 08:14:00,
2014-11-20 02:20:00,11.6,7.7,29.94,WSW,239,2.0,2.0,84,0.00,,,0.00,Wunderground v.1.15,2014-11-20 08:20:00,
2014-11-20 02:25:00,11.4,7.5,29.94,West,277,2.0,12.0,84,0.00,,,0.00,Wunderground v.1.15,2014-11-20 08:25:00,
2014-11-20 02:30:00,11.5,7.6,29.94,SW,235,2.0,12.0,84,0.00,,,0.00,Wunderground v.1.15,2014-11-20 08:30:00,
2014-11-20 02:35:00,11.5,7.6,29.94,WNW,284,2.0,12.0,84,0.00,,,0.00,Wunderground v.1.15,2014-11-20 08:35:00,
2014-11-20 02:40:00,11.4,7.5,29.94,West,270,2.0,12.0,84,0.00,,,0.00,Wunderground v.1.15,2014-11-20 08:40:00,
2014-11-20 02:46:00,11.3,7.1,29.94,West,277,2.0,12.0,83,0.00,,,0.00,Wunderground v.1.15,2014-11-20 08:46:00,
2014-11-20 02:51:00,11.2,7.3,29.94,WNW,286,2.0,12.0,84,0.00,,,0.00,Wunderground v.1.15,2014-11-20 08:51:00,
2014-11-20 02:56:00,11.1,7.2,29.94,WNW,293,2.0,12.0,84,0.00,,,0.00,Wunderground v.1.15,2014-11-20 08:56:00,
2014-11-20 03:01:00,11.0,7.1,29.94,WNW,287,1.0,12.0,84,0.00,,,0.00,Wunderground v.1.15,2014-11-20 09:01:00,
2014-11-20 03:06:00,10.9,7.0,29.94,WSW,257,2.0,12.0,84,0.00,,,0.00,Wunderground v.1.15,2014-11-20 09:06:00,
2014-11-20 03:12:00,10.8,6.9,29.94,West,262,2.0,12.0,84,0.00,,,0.00,Wunderground v.1.15,2014-11-20 09:12:00,
2014-11-20 03:17:00,10.9,7.0,29.94,WNW,301,2.0,12.0,84,0.00,,,0.00,Wunderground v.1.15,2014-11-20 09:17:00,
2014-11-20 03:22:00,10.8,6.9,29.94,WSW,241,2.0,12.0,84,0.00,,,0.00,Wunderground v.1.15,2014-11-20 09:22:00,
2014-11-20 03:27:00,10.8,6.9,29.94,West,274,3.0,12.0,84,0.00,,,0.00,Wunderground v.1.15,2014-11-20 09:27:00,
2014-11-20 03:32:00,10.8,6.9,29.94,WNW,290,3.0,12.0,84,0.00,,,0.00,Wunderground v.1.15,2014-11-20 09:32:00,
2014-11-20 03:37:00,10.7,6.8,29.95,West,266,2.0,12.0,84,0.00,,,0.00,Wunderground v.1.15,2014-11-20 09:37:00,
2014-11-20 03:42:00,10.6,6.7,29.95,WNW,284,2.0,12.0,84,0.00,,,0.00,Wunderground v.1.15,2014-11-20 09:42:00,
2014-11-20 03:47:00,10.7,6.8,29.95,WNW,293,2.0,12.0,84,0.00,,,0.00,Wunderground v.1.15,2014-11-20 09:47:00,
2014-11-20 03:52:00,10.6,6.5,29.95,WNW,300,2.0,12.0,83,0.00,,,0.00,Wunderground v.1.15,2014-11-20 09:52:00,
2014-11-20 03:57:00,10.6,6.5,29.95,West,278,2.0,12.0,83,0.00,,,0.00,Wunderground v.1.15,2014-11-20 09:57:00,
2014-11-20 04:03:00,10.5,6.4,29.95,WNW,288,2.0,12.0,83,0.00,,,0.00,Wunderground v.1.15,2014-11-20 10:03:00,
2014-11-20 04:08:00,10.4,6.3,29.95,SW,229,2.0,12.0,83,0.00,,,0.00,Wunderground v.1.15,2014-11-20 10:08:00,
2014-11-20 04:13:00,10.3,6.2,29.95,West,269,1.0,12.0,83,0.00,,,0.00,Wunderground v.1.15,2014-11-20 10:13:00,
2014-11-20 04:18:00,10.1,6.0,29.95,WNW,283,1.0,12.0,83,0.00,,,0.00,Wunderground v.1.15,2014-11-20 10:18:00,
2014-11-20 04:23:00,9.9,5.5,29.95,WNW,288,1.0,12.0,82,0.00,,,0.00,Wunderground v.1.15,2014-11-20 10:23:00,
2014-11-20 04:28:00,9.8,5.7,29.96,West,264,1.0,12.0,83,0.00,,,0.00,Wunderground v.1.15,2014-11-20 10:28:00,
2014-11-20 04:34:00,9.6,5.5,29.96,West,269,1.0,12.0,83,0.00,,,0.00,Wunderground v.1.15,2014-11-20 10:34:00,
2014-11-20 04:39:00,9.4,5.5,29.96,West,269,1.0,12.0,84,0.00,,,0.00,Wunderground v.1.15,2014-11-20 10:39:00,
2014-11-20 04:44:00,9.2,5.3,29.96,West,264,2.0,12.0,84,0.00,,,0.00,Wunderground v.1.15,2014-11-20 10:44:00,
2014-11-20 04:49:00,9.1,5.2,29.96,West,280,2.0,12.0,84,0.00,,,0.00,Wunderground v.1.15,2014-11-20 10:49:00,
2014-11-20 04:54:00,9.0,5.1,29.96,West,266,2.0,12.0,84,0.00,,,0.00,Wunderground v.1.15,2014-11-20 10:54:00,
2014-11-20 05:00:00,9.1,5.5,29.97,WSW,257,3.0,3.0,85,0.00,,,0.00,Wunderground v.1.15,2014-11-20 11:00:00,
2014-11-20 05:05:00,9.1,5.5,29.97,West,271,3.0,12.0,85,0.00,,,0.00,Wunderground v.1.15,2014-11-20 11:05:00,
2014-11-20 05:10:00,9.1,5.8,29.97,West,266,3.0,3.0,86,0.00,,,0.00,Wunderground v.1.15,2014-11-20 11:10:00,
2014-11-20 05:15:00,9.1,5.5,29.97,WNW,300,3.0,12.0,85,0.00,,,0.00,Wunderground v.1.15,2014-11-20 11:15:00,
2014-11-20 05:20:00,9.1,5.8,29.97,West,261,2.0,2.0,86,0.00,,,0.00,Wunderground v.1.15,2014-11-20 11:20:00,
2014-11-20 05:26:00,9.1,5.8,29.97,WSW,248,2.0,12.0,86,0.00,,,0.00,Wunderground v.1.15,2014-11-20 11:26:00,
2014-11-20 05:31:00,8.9,5.3,29.97,WNW,285,2.0,12.0,85,0.00,,,0.00,Wunderground v.1.15,2014-11-20 11:31:00,
2014-11-20 05:36:00,8.7,5.1,29.97,WSW,252,2.0,12.0,85,0.00,,,0.00,Wunderground v.1.15,2014-11-20 11:36:00,
2014-11-20 05:41:00,8.6,5.0,29.97,West,274,2.0,12.0,85,0.00,,,0.00,Wunderground v.1.15,2014-11-20 11:41:00,
2014-11-20 05:46:00,8.5,5.2,29.98,West,263,3.0,12.0,86,0.00,,,0.00,Wunderground v.1.15,2014-11-20 11:46:00,
2014-11-20 05:52:00,8.3,4.7,29.98,West,270,2.0,12.0,85,0.00,,,0.00,Wunderground v.1.15,2014-11-20 11:52:00,
2014-11-20 05:57:00,8.2,4.9,29.98,West,281,2.0,12.0,86,0.00,,,0.00,Wunderground v.1.15,2014-11-20 11:57:00,
2014-11-20 06:02:00,8.0,4.7,29.98,WSW,256,2.0,12.0,86,0.00,,,0.00,Wunderground v.1.15,2014-11-20 12:02:00,
2014-11-20 06:07:00,7.9,4.6,29.98,WNW,284,2.0,12.0,86,0.00,,,0.00,Wunderground v.1.15,2014-11-20 12:07:00,
2014-11-20 06:12:00,7.8,4.5,29.99,WNW,292,2.0,12.0,86,0.00,,,0.00,Wunderground v.1.15,2014-11-20 12:12:00,
2014-11-20 06:18:00,7.6,4.0,29.99,West,278,2.0,12.0,85,0.00,,,0.00,Wunderground v.1.15,2014-11-20 12:18:00,
2014-11-20 06:23:00,7.6,4.3,29.99,West,279,2.0,12.0,86,0.00,,,0.00,Wunderground v.1.15,2014-11-20 12:23:00,
2014-11-20 06:28:00,7.6,4.3,29.99,West,264,3.0,12.0,86,0.00,,,0.00,Wunderground v.1.15,2014-11-20 12:28:00,
2014-11-20 06:33:00,7.6,4.3,29.99,West,259,2.0,12.0,86,0.00,,,0.00,Wunderground v.1.15,2014-11-20 12:33:00,
2014-11-20 06:38:00,7.6,4.0,30.00,West,280,2.0,12.0,85,0.00,,,0.00,Wunderground v.1.15,2014-11-20 12:38:00,
2014-11-20 06:44:00,7.4,3.8,30.00,WNW,293,2.0,12.0,85,0.00,,,0.00,Wunderground v.1.15,2014-11-20 12:44:00,
2014-11-20 06:49:00,7.0,3.4,30.00,West,263,2.0,12.0,85,0.00,,,0.00,Wunderground v.1.15,2014-11-20 12:49:00,
2014-11-20 06:54:00,6.7,3.1,30.00,WSW,253,2.0,12.0,85,0.00,,,0.00,Wunderground v.1.15,2014-11-20 12:54:00,
2014-11-20 06:59:00,6.4,2.9,30.00,West,266,1.0,12.0,85,0.00,,,0.00,Wunderground v.1.15,2014-11-20 12:59:00,
2014-11-20 07:04:00,6.4,2.9,30.01,WNW,295,1.0,12.0,85,0.00,,,0.00,Wunderground v.1.15,2014-11-20 13:04:00,
2014-11-20 07:09:00,6.1,2.6,30.01,WSW,249,1.0,12.0,85,0.00,,,0.00,Wunderground v.1.15,2014-11-20 13:09:00,
2014-11-20 07:14:00,6.1,2.8,30.01,West,271,2.0,12.0,86,0.00,,,0.00,Wunderground v.1.15,2014-11-20 13:14:00,
2014-11-20 07:19:00,6.0,2.5,30.01,WSW,255,2.0,2.0,85,0.00,,,0.00,Wunderground v.1.15,2014-11-20 13:19:00,
2014-11-20 07:24:00,5.9,2.4,30.01,WNW,286,1.0,12.0,85,0.00,,,0.00,Wunderground v.1.15,2014-11-20 13:24:00,
2014-11-20 07:29:00,5.8,2.3,30.01,WNW,282,1.0,12.0,85,0.00,,,0.00,Wunderground v.1.15,2014-11-20 13:29:00,
2014-11-20 07:35:00,5.8,2.3,30.01,WSW,257,2.0,12.0,85,0.00,,,0.00,Wunderground v.1.15,2014-11-20 13:35:00,
2014-11-20 07:40:00,5.9,2.4,30.01,WSW,257,1.0,12.0,85,0.00,,,0.00,Wunderground v.1.15,2014-11-20 13:40:00,
2014-11-20 07:45:00,5.9,2.4,30.02,West,276,2.0,12.0,85,0.00,,,0.00,Wunderground v.1.15,2014-11-20 13:45:00,
2014-11-20 07:50:00,6.1,2.6,30.02,West,259,2.0,12.0,85,0.00,,,0.00,Wunderground v.1.15,2014-11-20 13:50:00,
2014-11-20 07:55:00,6.2,2.4,30.02,West,281,2.0,12.0,84,0.00,,,0.00,Wunderground v.1.15,2014-11-20 13:55:00,
2014-11-20 08:01:00,6.3,2.5,30.03,WNW,290,2.0,12.0,84,0.00,,,0.00,Wunderground v.1.15,2014-11-20 14:01:00,
2014-11-20 08:06:00,6.4,2.3,30.03,WSW,256,2.0,12.0,83,0.00,,,0.00,Wunderground v.1.15,2014-11-20 14:06:00,
2014-11-20 08:11:00,6.6,2.5,30.03,WSW,246,3.0,12.0,83,0.00,,,0.00,Wunderground v.1.15,2014-11-20 14:11:00,
2014-11-20 08:16:00,6.8,2.7,30.03,West,261,3.0,12.0,83,0.00,,,0.00,Wunderground v.1.15,2014-11-20 14:16:00,
2014-11-20 08:21:00,6.9,2.8,30.04,SW,236,3.0,12.0,83,0.00,,,0.00,Wunderground v.1.15,2014-11-20 14:21:00,
2014-11-20 08:26:00,7.0,2.7,30.04,West,263,2.0,12.0,82,0.00,,,0.00,Wunderground v.1.15,2014-11-20 14:26:00,
2014-11-20 08:31:00,7.1,2.5,30.04,West,270,2.0,12.0,81,0.00,,,0.00,Wunderground v.1.15,2014-11-20 14:31:00,
2014-11-20 08:36:00,7.2,2.6,30.04,WNW,297,2.0,12.0,81,0.00,,,0.00,Wunderground v.1.15,2014-11-20 14:36:00,
2014-11-20 08:41:00,7.3,2.4,30.04,WNW,284,2.0,12.0,80,0.00,,,0.00,Wunderground v.1.15,2014-11-20 14:41:00,
2014-11-20 08:46:00,7.4,2.5,30.05,WNW,297,2.0,12.0,80,0.00,,,0.00,Wunderground v.1.15,2014-11-20 14:46:00,
2014-11-20 08:51:00,7.6,2.7,30.05,WNW,295,2.0,12.0,80,0.00,,,0.00,Wunderground v.1.15,2014-11-20 14:51:00,
2014-11-20 08:57:00,7.7,2.8,30.05,WNW,293,1.0,12.0,80,0.00,,,0.00,Wunderground v.1.15,2014-11-20 14:57:00,
2014-11-20 09:02:00,7.8,2.6,30.05,NW,319,2.0,12.0,79,0.00,,,0.00,Wunderground v.1.15,2014-11-20 15:02:00,
2014-11-20 09:07:00,8.1,2.9,30.05,West,274,2.0,12.0,79,0.00,,,0.00,Wunderground v.1.15,2014-11-20 15:07:00,
2014-11-20 09:12:00,8.3,3.1,30.05,West,262,3.0,12.0,79,0.00,,,0.00,Wunderground v.1.15,2014-11-20 15:12:00,
2014-11-20 09:17:00,8.4,2.9,30.06,WNW,290,2.0,12.0,78,0.00,,,0.00,Wunderground v.1.15,2014-11-20 15:17:00,
2014-11-20 09:22:00,8.6,3.1,30.06,West,263,3.0,12.0,78,0.00,,,0.00,Wunderground v.1.15,2014-11-20 15:22:00,
2014-11-20 09:28:00,8.8,3.1,30.06,WNW,285,3.0,12.0,77,0.00,,,0.00,Wunderground v.1.15,2014-11-20 15:28:00,
2014-11-20 09:33:00,9.0,3.3,30.06,West,259,3.0,12.0,77,0.00,,,0.00,Wunderground v.1.15,2014-11-20 15:33:00,
2014-11-20 09:38:00,9.2,3.4,30.07,SW,235,3.0,12.0,77,0.00,,,0.00,Wunderground v.1.15,2014-11-20 15:38:00,
2014-11-20 09:43:00,9.4,3.4,30.07,WNW,287,3.0,12.0,76,0.00,,,0.00,Wunderground v.1.15,2014-11-20 15:43:00,
2014-11-20 09:48:00,9.6,3.6,30.07,West,276,3.0,12.0,76,0.00,,,0.00,Wunderground v.1.15,2014-11-20 15:48:00,
2014-11-20 09:54:00,9.9,3.8,30.07,West,278,2.0,12.0,76,0.00,,,0.00,Wunderground v.1.15,2014-11-20 15:54:00,
2014-11-20 09:59:00,10.2,3.8,30.07,WNW,301,2.0,12.0,75,0.00,,,0.00,Wunderground v.1.15,2014-11-20 15:59:00,
2014-11-20 10:04:00,10.5,3.8,30.07,West,269,3.0,12.0,74,0.00,,,0.00,Wunderground v.1.15,2014-11-20 16:04:00,
2014-11-20 10:09:00,10.8,4.1,30.07,WNW,294,3.0,12.0,74,0.00,,,0.00,Wunderground v.1.15,2014-11-20 16:09:00,
2014-11-20 10:14:00,11.0,4.0,30.07,West,263,3.0,12.0,73,0.00,,,0.00,Wunderground v.1.15,2014-11-20 16:14:00,
2014-11-20 10:20:00,11.4,4.7,30.07,WNW,285,2.0,12.0,74,0.00,,,0.00,Wunderground v.1.15,2014-11-20 16:20:00,
2014-11-20 10:25:00,11.6,4.6,30.08,WNW,285,2.0,12.0,73,0.00,,,0.00,Wunderground v.1.15,2014-11-20 16:25:00,
2014-11-20 10:30:00,11.9,4.9,30.08,West,260,2.0,12.0,73,0.00,,,0.00,Wunderground v.1.15,2014-11-20 16:30:00,
2014-11-20 10:35:00,12.1,4.8,30.08,West,278,2.0,12.0,72,0.00,,,0.00,Wunderground v.1.15,2014-11-20 16:35:00,
2014-11-20 10:40:00,12.4,5.4,30.08,WNW,289,2.0,2.0,73,0.00,,,0.00,Wunderground v.1.15,2014-11-20 16:40:00,
2014-11-20 10:46:00,12.7,5.4,30.08,NW,318,1.0,12.0,72,0.00,,,0.00,Wunderground v.1.15,2014-11-20 16:46:00,
2014-11-20 10:51:00,13.0,5.4,30.08,West,275,2.0,12.0,71,0.00,,,0.00,Wunderground v.1.15,2014-11-20 16:51:00,
2014-11-20 10:56:00,13.1,5.5,30.08,WNW,284,2.0,12.0,71,0.00,,,0.00,Wunderground v.1.15,2014-11-20 16:56:00,
2014-11-20 11:01:00,13.2,5.6,30.08,WNW,284,3.0,12.0,71,0.00,,,0.00,Wunderground v.1.15,2014-11-20 17:01:00,
2014-11-20 11:06:00,13.2,5.2,30.08,WNW,292,4.0,12.0,70,0.00,,,0.00,Wunderground v.1.15,2014-11-20 17:06:00,
2014-11-20 11:11:00,13.5,5.8,30.08,West,266,4.0,12.0,71,0.00,,,0.00,Wunderground v.1.15,2014-11-20 17:11:00,
2014-11-20 11:16:00,13.5,5.8,30.08,WNW,298,4.0,12.0,71,0.00,,,0.00,Wunderground v.1.15,2014-11-20 17:16:00,
2014-11-20 11:22:00,13.8,6.1,30.08,WNW,284,4.0,12.0,71,0.00,,,0.00,Wunderground v.1.15,2014-11-20 17:22:00,
2014-11-20 11:27:00,13.8,5.8,30.08,West,269,5.0,12.0,70,0.00,,,0.00,Wunderground v.1.15,2014-11-20 17:27:00,
2014-11-20 11:32:00,14.0,6.3,30.08,WSW,253,5.0,12.0,71,0.00,,,0.00,Wunderground v.1.15,2014-11-20 17:32:00,
2014-11-20 11:37:00,14.2,6.2,30.08,West,280,4.0,12.0,70,0.00,,,0.00,Wunderground v.1.15,2014-11-20 17:37:00,
2014-11-20 11:42:00,14.4,6.7,30.08,WNW,284,4.0,12.0,71,0.00,,,0.00,Wunderground v.1.15,2014-11-20 17:42:00,
2014-11-20 11:47:00,14.5,6.8,30.08,WNW,289,3.0,12.0,71,0.00,,,0.00,Wunderground v.1.15,2014-11-20 17:47:00,
2014-11-20 11:52:00,14.7,6.7,30.08,WSW,250,3.0,7.0,70,0.00,,,0.00,Wunderground v.1.15,2014-11-20 17:52:00,
2014-11-20 11:57:00,14.9,6.9,30.08,WNW,299,4.0,12.0,70,0.00,,,0.00,Wunderground v.1.15,2014-11-20 17:57:00,
2014-11-20 12:03:00,15.1,7.1,30.08,West,276,3.0,12.0,70,0.00,,,0.00,Wunderground v.1.15,2014-11-20 18:03:00,
2014-11-20 12:08:00,15.1,6.4,30.08,West,277,4.0,12.0,68,0.00,,,0.00,Wunderground v.1.15,2014-11-20 18:08:00,
2014-11-20 12:13:00,15.3,6.9,30.08,NW,322,3.0,12.0,69,0.00,,,0.00,Wunderground v.1.15,2014-11-20 18:13:00,
2014-11-20 12:18:00,15.4,6.7,30.08,NW,325,3.0,12.0,68,0.00,,,0.00,Wunderground v.1.15,2014-11-20 18:18:00,
2014-11-20 12:23:00,15.4,6.4,30.08,NNW,339,4.0,12.0,67,0.00,,,0.00,Wunderground v.1.15,2014-11-20 18:23:00,
2014-11-20 12:28:00,15.5,6.8,30.08,West,269,4.0,12.0,68,0.00,,,0.00,Wunderground v.1.15,2014-11-20 18:28:00,
2014-11-20 12:34:00,15.5,6.5,30.08,West,264,4.0,12.0,67,0.00,,,0.00,Wunderground v.1.15,2014-11-20 18:34:00,
2014-11-20 12:39:00,15.7,6.7,30.08,WNW,285,3.0,12.0,67,0.00,,,0.00,Wunderground v.1.15,2014-11-20 18:39:00,
2014-11-20 12:44:00,15.7,6.7,30.08,WNW,284,3.0,12.0,67,0.00,,,0.00,Wunderground v.1.15,2014-11-20 18:44:00,
2014-11-20 12:49:00,15.6,6.3,30.08,West,275,5.0,12.0,66,0.00,,,0.00,Wunderground v.1.15,2014-11-20 18:49:00,
2014-11-20 12:54:00,15.5,6.2,30.08,West,271,5.0,12.0,66,0.00,,,0.00,Wunderground v.1.15,2014-11-20 18:54:00,
2014-11-20 13:00:00,15.9,7.2,30.08,WNW,285,4.0,4.0,68,0.00,,,0.00,Wunderground v.1.15,2014-11-20 19:00:00,
2014-11-20 13:05:00,16.0,6.6,30.08,West,274,3.0,12.0,66,0.00,,,0.00,Wunderground v.1.15,2014-11-20 19:05:00,
2014-11-20 13:10:00,15.9,6.9,30.08,WNW,285,4.0,4.0,67,0.00,,,0.00,Wunderground v.1.15,2014-11-20 19:10:00,
2014-11-20 13:15:00,16.1,6.7,30.08,West,278,4.0,12.0,66,0.00,,,0.00,Wunderground v.1.15,2014-11-20 19:15:00,
2014-11-20 13:20:00,16.4,7.0,30.09,West,280,4.0,4.0,66,0.00,,,0.00,Wunderground v.1.15,2014-11-20 19:20:00,
2014-11-20 13:26:00,16.3,6.9,30.08,WSW,255,4.0,12.0,66,0.00,,,0.00,Wunderground v.1.15,2014-11-20 19:26:00,
2014-11-20 13:31:00,16.3,6.9,30.08,West,270,4.0,12.0,66,0.00,,,0.00,Wunderground v.1.15,2014-11-20 19:31:00,
2014-11-20 13:36:00,16.3,6.9,30.09,WNW,295,4.0,12.0,66,0.00,,,0.00,Wunderground v.1.15,2014-11-20 19:36:00,
2014-11-20 13:41:00,16.2,6.8,30.09,WNW,286,4.0,12.0,66,0.00,,,0.00,Wunderground v.1.15,2014-11-20 19:41:00,
2014-11-20 13:46:00,16.3,6.9,30.09,WNW,282,4.0,12.0,66,0.00,,,0.00,Wunderground v.1.15,2014-11-20 19:46:00,
2014-11-20 13:52:00,16.2,6.8,30.09,WNW,301,4.0,12.0,66,0.00,,,0.00,Wunderground v.1.15,2014-11-20 19:52:00,
2014-11-20 13:57:00,16.3,6.9,30.09,West,259,4.0,12.0,66,0.00,,,0.00,Wunderground v.1.15,2014-11-20 19:57:00,
2014-11-20 14:02:00,16.3,6.9,30.09,WNW,297,4.0,12.0,66,0.00,,,0.00,Wunderground v.1.15,2014-11-20 20:02:00,
2014-11-20 14:07:00,16.3,6.6,30.09,West,264,5.0,12.0,65,0.00,,,0.00,Wunderground v.1.15,2014-11-20 20:07:00,
2014-11-20 14:12:00,16.2,6.5,30.09,West,267,5.0,12.0,65,0.00,,,0.00,Wunderground v.1.15,2014-11-20 20:12:00,
2014-11-20 14:18:00,16.1,6.7,30.09,WNW,291,5.0,12.0,66,0.00,,,0.00,Wunderground v.1.15,2014-11-20 20:18:00,
2014-11-20 14:23:00,16.2,6.8,30.09,NW,309,5.0,12.0,66,0.00,,,0.00,Wunderground v.1.15,2014-11-20 20:23:00,
2014-11-20 14:28:00,16.2,7.2,30.09,WNW,298,3.0,12.0,67,0.00,,,0.00,Wunderground v.1.15,2014-11-20 20:28:00,
2014-11-20 14:33:00,16.0,6.6,30.09,NW,304,4.0,12.0,66,0.00,,,0.00,Wunderground v.1.15,2014-11-20 20:33:00,
2014-11-20 14:38:00,16.2,6.8,30.09,WNW,302,4.0,12.0,66,0.00,,,0.00,Wunderground v.1.15,2014-11-20 20:38:00,
2014-11-20 14:43:00,16.2,7.2,30.09,NW,321,2.0,12.0,67,0.00,,,0.00,Wunderground v.1.15,2014-11-20 20:43:00,
2014-11-20 14:48:00,16.1,7.1,30.09,WNW,290,3.0,12.0,67,0.00,,,0.00,Wunderground v.1.15,2014-11-20 20:48:00,
2014-11-20 14:53:00,16.0,7.0,30.09,West,274,4.0,12.0,67,0.00,,,0.00,Wunderground v.1.15,2014-11-20 20:53:00,
2014-11-20 14:58:00,15.9,6.9,30.09,WNW,284,4.0,12.0,67,0.00,,,0.00,Wunderground v.1.15,2014-11-20 20:58:00,
2014-11-20 15:03:00,15.8,7.1,30.09,West,264,3.0,12.0,68,0.00,,,0.00,Wunderground v.1.15,2014-11-20 21:03:00,
2014-11-20 15:09:00,15.8,7.1,30.09,West,261,3.0,3.0,68,0.00,,,0.00,Wunderground v.1.15,2014-11-20 21:09:00,
2014-11-20 15:14:00,15.7,7.0,30.09,West,278,3.0,12.0,68,0.00,,,0.00,Wunderground v.1.15,2014-11-20 21:14:00,
2014-11-20 15:19:00,15.6,7.2,30.10,West,260,3.0,12.0,69,0.00,,,0.00,Wunderground v.1.15,2014-11-20 21:19:00,
2014-11-20 15:24:00,15.7,7.0,30.10,WNW,285,3.0,12.0,68,0.00,,,0.00,Wunderground v.1.15,2014-11-20 21:24:00,
2014-11-20 15:29:00,15.6,7.2,30.10,WNW,290,3.0,12.0,69,0.00,,,0.00,Wunderground v.1.15,2014-11-20 21:29:00,
2014-11-20 15:35:00,15.6,6.9,30.10,West,270,3.0,12.0,68,0.00,,,0.00,Wunderground v.1.15,2014-11-20 21:35:00,
2014-11-20 15:40:00,15.4,6.7,30.10,WNW,297,3.0,3.0,68,0.00,,,0.00,Wunderground v.1.15,2014-11-20 21:40:00,
2014-11-20 15:45:00,15.2,6.8,30.10,West,270,3.0,12.0,69,0.00,,,0.00,Wunderground v.1.15,2014-11-20 21:45:00,
2014-11-20 15:50:00,15.1,6.8,30.11,West,259,3.0,12.0,69,0.00,,,0.00,Wunderground v.1.15,2014-11-20 21:50:00,
2014-11-20 15:55:00,15.1,6.8,30.11,West,270,3.0,12.0,69,0.00,,,0.00,Wunderground v.1.15,2014-11-20 21:55:00,
2014-11-20 16:00:00,15.0,7.0,30.11,WNW,293,2.0,12.0,70,0.00,,,0.00,Wunderground v.1.15,2014-11-20 22:00:00,
2014-11-20 16:06:00,15.0,7.0,30.11,WNW,291,2.0,12.0,70,0.00,,,0.00,Wunderground v.1.15,2014-11-20 22:06:00,
2014-11-20 16:11:00,14.7,6.7,30.11,West,269,1.0,12.0,70,0.00,,,0.00,Wunderground v.1.15,2014-11-20 22:11:00,
2014-11-20 16:16:00,14.3,6.3,30.11,WNW,283,1.0,12.0,70,0.00,,,0.00,Wunderground v.1.15,2014-11-20 22:16:00,
2014-11-20 16:21:00,14.0,6.3,30.11,West,266,1.0,12.0,71,0.00,,,0.00,Wunderground v.1.15,2014-11-20 22:21:00,
2014-11-20 16:26:00,13.8,6.1,30.11,West,281,1.0,12.0,71,0.00,,,0.00,Wunderground v.1.15,2014-11-20 22:26:00,
2014-11-20 16:32:00,13.4,6.1,30.11,WNW,283,1.0,12.0,72,0.00,,,0.00,Wunderground v.1.15,2014-11-20 22:32:00,
2014-11-20 16:37:00,13.1,6.1,30.12,West,274,1.0,12.0,73,0.00,,,0.00,Wunderground v.1.15,2014-11-20 22:37:00,
2014-11-20 16:42:00,12.8,5.8,30.11,West,280,1.0,12.0,73,0.00,,,0.00,Wunderground v.1.15,2014-11-20 22:42:00,
2014-11-20 16:47:00,12.5,5.8,30.11,West,263,1.0,12.0,74,0.00,,,0.00,Wunderground v.1.15,2014-11-20 22:47:00,
2014-11-20 16:52:00,12.5,6.1,30.12,WSW,253,1.0,12.0,75,0.00,,,0.00,Wunderground v.1.15,2014-11-20 22:52:00,
2014-11-20 16:58:00,12.5,6.1,30.13,West,269,1.0,12.0,75,0.00,,,0.00,Wunderground v.1.15,2014-11-20 22:58:00,
2014-11-20 17:03:00,12.4,6.0,30.13,WSW,256,1.0,12.0,75,0.00,,,0.00,Wunderground v.1.15,2014-11-20 23:03:00,
2014-11-20 17:08:00,12.3,6.2,30.13,WSW,257,0.0,12.0,76,0.00,,,0.00,Wunderground v.1.15,2014-11-20 23:08:00,
2014-11-20 17:13:00,12.2,6.1,30.13,West,273,1.0,12.0,76,0.00,,,0.00,Wunderground v.1.15,2014-11-20 23:13:00,
2014-11-20 17:18:00,12.0,5.9,30.13,West,264,1.0,12.0,76,0.00,,,0.00,Wunderground v.1.15,2014-11-20 23:18:00,
2014-11-20 17:24:00,11.6,5.8,30.13,West,270,0.0,12.0,77,0.00,,,0.00,Wunderground v.1.15,2014-11-20 23:24:00,
2014-11-20 17:29:00,11.1,5.3,30.13,WSW,256,1.0,12.0,77,0.00,,,0.00,Wunderground v.1.15,2014-11-20 23:29:00,
2014-11-20 17:34:00,11.1,5.6,30.13,WNW,284,1.0,12.0,78,0.00,,,0.00,Wunderground v.1.15,2014-11-20 23:34:00,
2014-11-20 17:39:00,11.1,5.6,30.13,WSW,253,1.0,12.0,78,0.00,,,0.00,Wunderground v.1.15,2014-11-20 23:39:00,
2014-11-20 17:44:00,11.0,5.5,30.13,WSW,239,1.0,12.0,78,0.00,,,0.00,Wunderground v.1.15,2014-11-20 23:44:00,
2014-11-20 17:50:00,10.8,5.3,30.13,West,279,1.0,1.0,78,0.00,,,0.00,Wunderground v.1.15,2014-11-20 23:50:00,
2014-11-20 17:55:00,10.6,5.1,30.13,WSW,257,0.0,12.0,78,0.00,,,0.00,Wunderground v.1.15,2014-11-20 23:55:00,
2014-11-20 18:00:00,10.4,4.9,30.13,WSW,248,0.0,12.0,78,0.00,,,0.00,Wunderground v.1.15,2014-11-21 00:00:00,
2014-11-20 18:05:00,10.4,5.2,30.14,West,279,0.0,12.0,79,0.00,,,0.00,Wunderground v.1.15,2014-11-21 00:05:00,
2014-11-20 18:10:00,10.3,5.1,30.14,WSW,256,0.0,12.0,79,0.00,,,0.00,Wunderground v.1.15,2014-11-21 00:10:00,
2014-11-20 18:15:00,10.2,5.0,30.14,West,273,0.0,12.0,79,0.00,,,0.00,Wunderground v.1.15,2014-11-21 00:15:00,
2014-11-20 18:20:00,10.0,4.8,30.14,West,274,0.0,12.0,79,0.00,,,0.00,Wunderground v.1.15,2014-11-21 00:20:00,
2014-11-20 18:25:00,9.8,4.9,30.14,West,268,0.0,12.0,80,0.00,,,0.00,Wunderground v.1.15,2014-11-21 00:25:00,
2014-11-20 18:30:00,9.8,4.9,30.14,West,278,0.0,12.0,80,0.00,,,0.00,Wunderground v.1.15,2014-11-21 00:30:00,
2014-11-20 18:35:00,9.6,4.7,30.14,West,270,0.0,12.0,80,0.00,,,0.00,Wunderground v.1.15,2014-11-21 00:35:00,
2014-11-20 18:41:00,9.6,4.7,30.14,West,271,0.0,12.0,80,0.00,,,0.00,Wunderground v.1.15,2014-11-21 00:41:00,
2014-11-20 18:46:00,9.5,4.6,30.15,West,261,0.0,12.0,80,0.00,,,0.00,Wunderground v.1.15,2014-11-21 00:46:00,
2014-11-20 18:51:00,9.4,4.7,30.15,SW,232,1.0,12.0,81,0.00,,,0.00,Wunderground v.1.15,2014-11-21 00:51:00,
2014-11-20 18:56:00,9.4,4.7,30.15,WSW,241,0.0,12.0,81,0.00,,,0.00,Wunderground v.1.15,2014-11-21 00:56:00,
2014-11-20 19:01:00,9.2,4.6,30.15,WSW,252,0.0,12.0,81,0.00,,,0.00,Wunderground v.1.15,2014-11-21 01:01:00,
2014-11-20 19:07:00,9.1,4.5,30.15,West,264,0.0,12.0,81,0.00,,,0.00,Wunderground v.1.15,2014-11-21 01:07:00,
2014-11-20 19:12:00,8.9,4.3,30.15,WSW,257,0.0,12.0,81,0.00,,,0.00,Wunderground v.1.15,2014-11-21 01:12:00,
2014-11-20 19:17:00,8.8,4.4,30.15,WSW,253,0.0,12.0,82,0.00,,,0.00,Wunderground v.1.15,2014-11-21 01:17:00,
2014-11-20 19:22:00,8.9,4.5,30.15,West,263,0.0,12.0,82,0.00,,,0.00,Wunderground v.1.15,2014-11-21 01:22:00,
2014-11-20 19:27:00,8.8,4.4,30.16,West,266,0.0,12.0,82,0.00,,,0.00,Wunderground v.1.15,2014-11-21 01:27:00,
2014-11-20 19:32:00,8.8,4.4,30.16,West,276,0.0,12.0,82,0.00,,,0.00,Wunderground v.1.15,2014-11-21 01:32:00,
2014-11-20 19:38:00,8.7,4.3,30.16,West,272,0.0,12.0,82,0.00,,,0.00,Wunderground v.1.15,2014-11-21 01:38:00,
2014-11-20 19:43:00,8.5,4.1,30.16,West,278,0.0,12.0,82,0.00,,,0.00,Wunderground v.1.15,2014-11-21 01:43:00,
2014-11-20 19:48:00,8.5,4.4,30.16,West,278,0.0,12.0,83,0.00,,,0.00,Wunderground v.1.15,2014-11-21 01:48:00,
2014-11-20 19:53:00,8.3,4.2,30.16,West,278,0.0,12.0,83,0.00,,,0.00,Wunderground v.1.15,2014-11-21 01:53:00,
2014-11-20 19:58:00,8.1,4.0,30.16,WSW,249,0.0,12.0,83,0.00,,,0.00,Wunderground v.1.15,2014-11-21 01:58:00,
2014-11-20 20:04:00,7.9,3.8,30.16,WSW,249,0.0,12.0,83,0.00,,,0.00,Wunderground v.1.15,2014-11-21 02:04:00,
2014-11-20 20:09:00,7.6,3.5,30.17,WSW,249,0.0,12.0,83,0.00,,,0.00,Wunderground v.1.15,2014-11-21 02:09:00,
2014-11-20 20:14:00,7.4,3.3,30.17,WSW,248,0.0,12.0,83,0.00,,,0.00,Wunderground v.1.15,2014-11-21 02:14:00,
2014-11-20 20:19:00,7.3,3.5,30.17,WSW,249,0.0,12.0,84,0.00,,,0.00,Wunderground v.1.15,2014-11-21 02:19:00,
2014-11-20 20:24:00,6.9,2.8,30.17,WSW,249,0.0,12.0,83,0.00,,,0.00,Wunderground v.1.15,2014-11-21 02:24:00,
2014-11-20 20:30:00,6.5,2.4,30.17,WSW,249,0.0,12.0,83,0.00,,,0.00,Wunderground v.1.15,2014-11-21 02:30:00,
2014-11-20 20:35:00,6.2,2.4,30.17,WSW,249,0.0,12.0,84,0.00,,,0.00,Wunderground v.1.15,2014-11-21 02:35:00,
2014-11-20 20:40:00,6.1,2.6,30.17,WSW,248,0.0,12.0,85,0.00,,,0.00,Wunderground v.1.15,2014-11-21 02:40:00,
2014-11-20 20:45:00,6.0,2.5,30.17,WSW,249,0.0,12.0,85,0.00,,,0.00,Wunderground v.1.15,2014-11-21 02:45:00,
2014-11-20 20:50:00,6.0,2.5,30.17,WSW,249,0.0,12.0,85,0.00,,,0.00,Wunderground v.1.15,2014-11-21 02:50:00,
2014-11-20 20:56:00,5.8,2.3,30.17,WSW,249,0.0,12.0,85,0.00,,,0.00,Wunderground v.1.15,2014-11-21 02:56:00,
2014-11-20 21:01:00,5.7,2.4,30.17,WSW,249,0.0,12.0,86,0.00,,,0.00,Wunderground v.1.15,2014-11-21 03:01:00,
2014-11-20 21:06:00,5.6,2.3,30.17,WSW,249,0.0,12.0,86,0.00,,,0.00,Wunderground v.1.15,2014-11-21 03:06:00,
2014-11-20 21:11:00,5.5,2.2,30.17,WSW,249,0.0,12.0,86,0.00,,,0.00,Wunderground v.1.15,2014-11-21 03:11:00,